GW2092 Weather Reports


time (UTC)temp
C
wind
direction
speed
KPH
gust
KPH
rain 1hr
cm
rain 24hr
cm
rain mn
cm
humidity
%
barometer
mb
20260902191605 38 147 1.6 11.3 0.00 0.00 0.00 38 1016.4
20260902190056 38 218 0.0 6.4 0.00 0.00 0.00 38 1016.5
20260902184547 38 0 0.0 6.4 0.00 0.00 0.00 39 1016.7
20260902183113 37 0 3.2 11.3 0.00 0.00 0.00 39 1017.0
20260902181555 38 216 0.0 6.4 0.00 0.00 0.00 39 1017.3
20260902180049 37 0 0.0 6.4 0.00 0.00 0.00 41 1017.5
20260902174556 37 113 1.6 9.7 0.00 0.00 0.00 41 1017.7
20260902173056 37 251 0.0 4.8 0.00 0.00 0.00 45 1017.8
20260902171558 36 0 1.6 11.3 0.00 0.00 0.00 44 1018.0
20260902170057 36 266 0.0 11.3 0.00 0.00 0.00 46 1018.3
20260902164559 35 148 1.6 9.7 0.00 0.00 0.00 48 1018.3
20260902163051 35 145 0.0 11.3 0.00 0.00 0.00 49 1018.5
20260902161547 34 150 1.6 17.7 0.00 0.00 0.00 50 1018.5
20260902160055 34 188 3.2 14.5 0.00 0.00 0.00 51 1018.7
20260902154606 33 0 0.0 9.7 0.00 0.00 0.00 54 1018.7
20260902153100 33 189 1.6 9.7 0.00 0.00 0.00 55 1018.8
20260902151546 33 205 1.6 6.4 0.00 0.00 0.00 55 1018.8
20260902150044 32 152 0.0 3.2 0.00 0.00 0.00 58 1019.1
20260902144550 31 254 0.0 4.8 0.00 0.00 0.00 59 1019.0
20260902143044 30 203 0.0 8.0 0.00 0.00 0.00 63 1019.1
20260902141554 29 213 0.0 4.8 0.00 0.00 0.00 64 1018.9
20260902140053 28 117 0.0 3.2 0.00 0.00 0.00 67 1019.1
20260902134550 27 0 0.0 1.6 0.00 0.00 0.00 70 1019.1
20260902133055 26 0 0.0 1.6 0.00 0.00 0.00 72 1018.9
20260902131553 26 215 0.0 1.6 0.00 0.00 0.00 72 1018.9
20260902130051 26 165 0.0 1.6 0.00 0.00 0.00 72 1018.8
20260902124544 26 0 0.0 1.6 0.00 0.00 0.00 73 1018.6
20260902123100 25 0 0.0 3.2 0.00 0.00 0.00 77 1018.6
20260902121550 23 0 0.0 1.6 0.00 0.00 0.00 80 1018.4
20260902120053 22 0 0.0 0.0 0.00 0.00 0.00 81 1018.3
20260902114616 23 0 0.0 0.0 0.00 0.00 0.00 80 1018.1
20260902113055 23 0 0.0 0.0 0.00 0.00 0.00 79 1018.0
20260902111600 23 0 0.0 0.0 0.00 0.00 0.00 80 1017.8
20260902110055 23 0 0.0 0.0 0.00 0.00 0.00 78 1017.8
20260902104552 23 0 0.0 0.0 0.00 0.00 0.00 77 1017.7
20260902103102 23 0 0.0 0.0 0.00 0.00 0.00 77 1017.6
20260902101544 24 0 0.0 0.0 0.00 0.00 0.00 76 1017.4
20260902100105 24 0 0.0 0.0 0.00 0.00 0.00 75 1017.5
20260902094601 25 0 0.0 0.0 0.00 0.00 0.00 73 1017.4
20260902093106 25 0 0.0 0.0 0.00 0.00 0.00 72 1017.2
20260902091544 25 0 0.0 0.0 0.00 0.00 0.00 71 1017.3
20260902090050 25 0 0.0 1.6 0.00 0.00 0.00 71 1017.3
20260902084547 26 0 0.0 1.6 0.00 0.00 0.00 71 1017.4
20260902083043 26 0 0.0 1.6 0.00 0.00 0.00 70 1017.4
20260902081553 26 0 0.0 1.6 0.00 0.00 0.00 69 1017.3
20260902080050 26 0 0.0 1.6 0.00 0.00 0.00 69 1017.4
20260902074545 26 0 0.0 4.8 0.00 0.00 0.00 68 1017.3
20260902073048 26 229 0.0 4.8 0.00 0.00 0.00 68 1017.3
20260902071550 26 0 0.0 3.2 0.00 0.00 0.00 67 1017.3
20260902070047 26 0 0.0 3.2 0.00 0.00 0.00 67 1017.4
20260902064545 26 0 0.0 3.2 0.00 0.00 0.00 66 1017.3
20260902063052 26 0 0.0 1.6 0.00 0.00 0.00 66 1017.3
20260902061559 26 158 0.0 1.6 0.00 0.00 0.00 66 1017.3
20260902060054 26 210 0.0 3.2 0.00 0.00 0.00 66 1017.2
20260902054553 27 0 0.0 1.6 0.00 0.00 0.00 65 1016.9
20260902053047 27 129 0.0 3.2 0.00 0.00 0.00 64 1017.0
20260902051544 27 155 0.0 3.2 0.00 0.00 0.00 63 1016.9
20260902050046 27 0 0.0 1.6 0.00 0.00 0.00 63 1016.9
20260902044550 27 0 0.0 3.2 0.00 0.00 0.00 62 1017.0
20260902043051 27 0 0.0 1.6 0.00 0.00 0.00 62 1017.0
20260902041607 27 0 0.0 0.0 0.00 0.00 0.00 61 1017.0
20260902040054 27 0 0.0 1.6 0.00 0.00 0.00 60 1017.1
20260902034550 27 0 0.0 1.6 0.00 0.00 0.00 59 1017.0
20260902033044 28 0 0.0 1.6 0.00 0.00 0.00 59 1017.0
20260902031614 28 0 0.0 1.6 0.00 0.00 0.00 59 1016.8
20260902030056 27 0 0.0 1.6 0.00 0.00 0.00 59 1016.5
20260902024553 27 0 0.0 0.0 0.00 0.00 0.00 60 1016.3
20260902023102 27 0 0.0 0.0 0.00 0.00 0.00 61 1016.0
20260902021549 27 0 0.0 0.0 0.00 0.00 0.00 61 1015.8
20260902020047 27 0 0.0 0.0 0.00 0.00 0.00 60 1015.3
20260902014544 28 0 0.0 0.0 0.00 0.00 0.00 58 1015.1
20260902013043 28 0 0.0 0.0 0.00 0.00 0.00 56 1015.1
20260902011550 30 0 0.0 0.0 0.00 0.00 0.00 54 1015.1
20260902010045 30 0 0.0 0.0 0.00 0.00 0.00 52 1015.2
20260902004555 32 0 0.0 0.0 0.00 0.00 0.00 49 1015.1
20260902003052 32 0 0.0 1.6 0.00 0.00 0.00 47 1015.3
20260902001556 33 0 0.0 0.0 0.00 0.00 0.00 45 1015.4
20260902000043 34 0 0.0 1.6 0.00 0.00 0.00 44 1015.5
20260901234544 34 0 0.0 3.2 0.00 0.00 0.00 42 1015.5
20260901233059 35 0 0.0 4.8 0.00 0.00 0.00 41 1015.7
20260901231544 36 0 0.0 4.8 0.00 0.00 0.00 39 1015.7
20260901230125 36 0 0.0 1.6 0.00 0.00 0.00 37 1015.8
20260901224552 37 139 1.6 4.8 0.00 0.00 0.00 36 1015.7
20260901223054 38 0 0.0 6.4 0.00 0.00 0.00 36 1015.7
20260901221554 38 0 0.0 4.8 0.00 0.00 0.00 35 1015.6
20260901220047 37 146 0.0 8.0 0.00 0.00 0.00 37 1015.8
20260901214550 39 245 1.6 8.0 0.00 0.00 0.00 34 1015.8
20260901213110 39 0 0.0 6.4 0.00 0.00 0.00 32 1015.8
20260901211550 39 153 1.6 9.7 0.00 0.00 0.00 33 1015.8
20260901210045 39 0 0.0 9.7 0.00 0.00 0.00 34 1016.1
20260901204552 38 0 0.0 6.4 0.00 0.00 0.00 36 1016.2
20260901203115 37 321 0.0 1.6 0.00 0.00 0.00 38 1016.5
20260901201550 38 0 0.0 3.2 0.00 0.00 0.00 36 1016.7
20260901200053 38 0 0.0 0.0 0.00 0.00 0.00 37 1016.8
20260901194602 39 0 1.6 9.7 0.00 0.00 0.00 35 1017.1
20260901193044 38 0 1.6 6.4 0.00 0.00 0.00 37 1017.2